INTELSAT 20 (IS-20)

Last updated on Thu Nov 21 2024 00:02:42 GMT+0000 (Coordinated Universal Time)

1 38740U 12043A 24325.12341330 -.00000023 00000+0 00000+0 0 9999 2 38740 0.0061 305.1286 0002666 239.5000 347.9485 1.00271048 44994
UTC large
Height (km)
Speed (km/s)
/
Latitude / Longitude
Inclination (degrees)
Orbital Period (minutes)
Azimuth
Elevation
Range (km)
Doppler Factor

Next 0 passes for location: London (51.5072 / 0.1276)

Sorry there are no passes over London.